Dewpoint
66 66 66 66 67 66 66 66 66 66 66 66 66 65 65 64 64 64 64 64 63 62 62 62 62 61 60 59 58 57 53 53
65 64 62 64 65 65 65 65 65 65 65 64 64 64 64 64 63 63 64 64 64 62 62 61 59 59 58 57 56 55 50 52
64 61 63 63 62 65 65 65 65 64 64 63 62 60 59 58 62 63 63 62 60 57 56 56 56 55 51 49 50 48 50 50
62 61 61 61 63 64 64 62 61 62 61 61 59 60 60 58 61 62 61 59 57 54 51 50 46 39 39 44 38 41 45 49
58 59 62 61 61 62 61 60 60 60 60 59 60 60 61 60 59 57 53 51 44 44 43 41 43 41 41 41 40 39 38 38
57 57 56 63 62 61 60 58 59 59 58 60 61 60 61 61 59 53 50 46 46 44 43 45 43 42 42 41 41 38 37 36
56 57 63 63 62 61 59 59 58 61 61 61 62 61 61 58 54 50 46 44 43 43 41 40 41 40 39 39 38 40 41 39
57 59 62 62 61 61 59 59 59 60 60 60 62 61 59 55 51 46 44 43 42 41 40 39 39 39 39 39 39 37 41 46
57 61 63 62 60 59 58 58 59 58 59 62 62 61 57 55 53 47 43 44 45 43 42 41 39 37 39 38 37 38 37 40
58 59 62 61 59 59 58 59 61 62 63 62 61 59 56 53 47 46 45 44 43 42 41 39 39 38 39 37 36 36 37 37
59 61 62 62 60 60 61 62 62 62 62 61 59 57 55 51 47 46 46 44 44 41 41 41 39 38 35 38 38 36 37 33
60 61 62 61 61 60 61 61 61 61 61 59 57 54 52 49 46 47 45 43 43 42 43 42 41 40 33 35 40 37 37 38
60 60 60 59 58 58 58 59 59 58 58 56 54 51 51 49 46 45 45 43 43 44 43 42 40 42 37 36 38 39 39 38
59 59 58 58 58 58 58 58 56 56 55 55 53 51 49 48 46 44 45 43 44 44 44 41 41 41 35 34 29 32 36 37
58 58 58 58 58 57 54 53 53 53 54 52 50 49 47 46 46 45 45 44 43 44 43 41 38 39 39 31 25 21 28 34
58 58 58 58 58 57 56 55 53 54 53 50 49 49 46 45 45 46 45 44 44 43 41 41 38 32 36 36 37 32 23 23
59 58 58 58 58 58 57 56 56 54 52 50 49 49 47 44 45 45 45 44 44 43 41 40 39 38 33 34 34 34 35 31
59 58 57 57 57 57 56 55 53 52 52 49 48 48 46 45 43 44 45 43 41 40 40 39 39 37 35 35 33 30 28 31
58 57 57 57 57 57 56 55 54 53 52 50 48 46 45 44 44 43 42 42 42 41 39 37 38 36 37 36 37 36 37 36
57 57 57 57 57 57 57 55 55 53 50 50 49 46 44 44 43 42 43 43 41 41 38 39 38 38 39 39 36 35 35 34
Lifted_Index
-2 -1 -1 -0 -1 -1 0 0 -0 -0 -1 -1 -1 -1 -2 -2 -2 -1 -1 0 1 2 3 3 4 4 5 5 5 6 5 5
-1 -1 0 1 1 0 0 0 0 -0 -0 -0 -0 -1 -2 -2 -1 -1 -0 1 2 3 3 4 4 4 5 5 5 6 6 6
-0 0 2 2 2 1 1 1 1 1 1 1 -0 -1 -2 -1 -0 0 1 2 3 4 4 4 4 4 5 5 6 7 7 7
1 1 2 3 3 2 1 1 1 1 1 1 -1 -2 -1 -0 1 1 2 3 3 4 4 4 4 4 4 6 8 9 9 9
2 3 3 3 3 2 2 2 2 2 1 0 -1 -1 -1 0 1 2 2 3 3 3 3 3 4 4 5 7 10 11 12 11
4 4 3 2 2 2 3 3 2 1 1 -0 -1 -1 -0 1 2 2 2 2 2 2 3 3 4 5 7 10 12 13 13 13
4 3 2 1 1 2 2 2 1 1 -0 -0 -1 -1 0 1 1 1 2 2 2 2 3 3 4 6 10 12 13 13 13 12
3 2 1 0 0 1 1 1 1 0 -0 -1 -1 -1 -1 -0 1 1 1 2 2 3 3 4 6 9 12 13 14 13 13 12
1 0 -1 -1 -1 0 0 0 0 -0 -1 -1 -1 -1 -1 -0 0 1 2 2 3 3 4 6 9 12 13 14 14 14 13 13
-1 -2 -2 -2 -1 -0 0 -0 -1 -1 -1 -1 -1 -1 -0 0 1 1 2 2 3 4 6 8 10 12 13 13 14 14 14 13
-2 -3 -3 -2 -1 -0 -0 -0 -1 -2 -2 -1 -1 -1 0 1 1 1 2 3 4 6 8 9 10 11 12 13 13 14 14 13
-2 -3 -3 -2 -1 0 0 -0 -1 -2 -1 -1 -1 -0 0 1 1 1 2 4 6 8 8 9 10 10 11 11 12 13 13 13
-2 -3 -3 -2 -1 0 0 -0 -1 -1 -1 -1 -0 0 1 1 1 2 4 6 8 8 9 9 9 10 9 9 10 11 12 12
-2 -3 -3 -2 -1 0 0 -1 -1 -1 -1 -1 0 1 1 2 3 4 6 8 8 8 9 9 9 9 8 6 7 8 10 11
-2 -2 -3 -2 -1 -1 -1 -1 -1 -1 -1 -0 1 2 2 3 5 6 8 8 8 8 9 8 8 8 7 7 6 7 9 10
-1 -2 -3 -3 -2 -2 -1 -1 -1 -1 -1 -0 1 2 3 4 6 7 8 8 8 8 9 8 7 7 7 8 9 9 9 9
-1 -2 -3 -3 -3 -2 -2 -1 -1 -1 -1 0 1 2 3 5 7 7 7 7 8 8 8 7 7 6 7 10 11 11 11 10
-1 -2 -2 -2 -2 -2 -1 -1 -1 -1 -1 0 1 1 3 5 6 7 7 7 7 7 7 6 6 6 8 11 12 12 12 12
-2 -2 -2 -2 -2 -2 -1 -1 -1 -1 -1 0 1 1 2 4 6 6 6 7 7 7 7 6 6 8 10 12 12 12 12 12
-1 -1 -1 -1 -2 -1 -1 -1 -1 -1 -1 0 0 1 2 4 5 5 6 7 7 7 6 6 7 9 11 12 12 12 12 12